TimeCDT,TemperatureF,Dew PointF,Humidity,Sea Level PressureIn,VisibilityMPH,Wind Direction,Wind SpeedMPH,Gust SpeedMPH,PrecipitationIn,Events,Conditions,WindDirDegrees,DateUTC
12:53 AM,60.1,57.9,93,29.96,10.0,Calm,Calm,-,N/A,,Clear,0,2013-04-29 05:53:00
1:53 AM,57.9,57.0,97,29.95,10.0,Calm,Calm,-,N/A,,Clear,0,2013-04-29 06:53:00
2:15 AM,57.2,55.4,94,29.95,10.0,Calm,Calm,-,N/A,,Scattered Clouds,0,2013-04-29 07:15:00
2:24 AM,57.2,55.4,94,29.95,8.0,Calm,Calm,-,N/A,,Mostly Cloudy,0,2013-04-29 07:24:00
2:35 AM,57.2,55.4,94,29.95,1.8,Calm,Calm,-,N/A,,Overcast,0,2013-04-29 07:35:00
2:42 AM,57.2,55.4,94,29.95,0.2,Calm,Calm,-,N/A,Fog,Fog,0,2013-04-29 07:42:00
2:50 AM,55.4,55.4,100,29.95,1.0,Calm,Calm,-,N/A,,Mist,0,2013-04-29 07:50:00
2:53 AM,55.9,55.9,100,29.94,1.0,Calm,Calm,-,N/A,,Mist,0,2013-04-29 07:53:00
2:59 AM,55.4,55.4,100,29.95,0.2,Calm,Calm,-,N/A,Fog,Fog,0,2013-04-29 07:59:00
3:37 AM,55.4,55.4,100,29.94,0.8,Calm,Calm,-,N/A,,Mist,0,2013-04-29 08:37:00
3:48 AM,57.2,55.4,94,29.94,1.2,Calm,Calm,-,N/A,,Overcast,0,2013-04-29 08:48:00
3:53 AM,55.9,55.9,100,29.94,1.0,Calm,Calm,-,N/A,,Mist,0,2013-04-29 08:53:00
4:04 AM,55.4,55.4,100,29.94,0.5,Calm,Calm,-,N/A,Fog,Fog,0,2013-04-29 09:04:00
4:21 AM,55.4,55.4,100,29.94,1.5,Calm,Calm,-,N/A,,Overcast,0,2013-04-29 09:21:00
4:33 AM,55.4,55.4,100,29.94,0.8,Calm,Calm,-,N/A,,Mist,0,2013-04-29 09:33:00
4:53 AM,55.0,55.0,100,29.94,0.5,Calm,Calm,-,N/A,Fog,Fog,0,2013-04-29 09:53:00
5:14 AM,55.4,55.4,100,29.95,0.2,Calm,Calm,-,N/A,Fog,Fog,0,2013-04-29 10:14:00
5:53 AM,55.0,55.0,100,29.95,0.2,Calm,Calm,-,N/A,Fog,Fog,0,2013-04-29 10:53:00
6:10 AM,55.4,55.4,100,29.96,0.5,Calm,Calm,-,N/A,Fog,Fog,0,2013-04-29 11:10:00
6:42 AM,53.6,53.6,100,29.97,1.0,Calm,Calm,-,N/A,,Mist,0,2013-04-29 11:42:00
6:46 AM,53.6,53.6,100,29.97,3.0,Calm,Calm,-,N/A,,Overcast,0,2013-04-29 11:46:00
6:49 AM,53.6,53.6,100,29.97,1.8,Calm,Calm,-,N/A,,Overcast,0,2013-04-29 11:49:00
6:53 AM,54.0,54.0,100,29.97,1.0,Calm,Calm,-,N/A,,Mist,0,2013-04-29 11:53:00
7:01 AM,55.4,55.4,100,29.98,3.0,Calm,Calm,-,N/A,,Mostly Cloudy,0,2013-04-29 12:01:00
7:14 AM,55.4,55.4,100,29.98,10.0,Calm,Calm,-,N/A,,Scattered Clouds,0,2013-04-29 12:14:00
7:53 AM,60.1,59.0,96,29.99,10.0,Calm,Calm,-,N/A,,Clear,0,2013-04-29 12:53:00
8:53 AM,68.0,62.1,81,29.99,10.0,Calm,Calm,-,N/A,,Clear,0,2013-04-29 13:53:00
9:53 AM,72.0,61.0,68,29.99,10.0,Calm,Calm,-,N/A,,Clear,0,2013-04-29 14:53:00
10:53 AM,75.9,60.1,58,29.99,10.0,Variable,4.6,-,N/A,,Clear,0,2013-04-29 15:53:00
11:53 AM,79.0,60.1,52,29.98,10.0,NNE,3.5,-,N/A,,Partly Cloudy,30,2013-04-29 16:53:00
12:53 PM,79.0,53.1,40,29.96,10.0,Calm,Calm,-,N/A,,Partly Cloudy,0,2013-04-29 17:53:00
1:53 PM,80.1,54.0,40,29.95,10.0,South,5.8,-,N/A,,Partly Cloudy,190,2013-04-29 18:53:00
2:53 PM,82.0,54.0,38,29.92,10.0,Calm,Calm,-,N/A,,Partly Cloudy,0,2013-04-29 19:53:00
3:53 PM,82.0,52.0,35,29.89,10.0,Variable,3.5,-,N/A,,Mostly Cloudy,0,2013-04-29 20:53:00
4:53 PM,80.1,52.0,38,29.88,10.0,Variable,4.6,-,N/A,,Clear,0,2013-04-29 21:53:00
5:53 PM,80.1,55.0,42,29.88,10.0,SSE,6.9,-,N/A,,Clear,160,2013-04-29 22:53:00
6:53 PM,75.9,57.0,52,29.88,10.0,SE,3.5,-,N/A,,Clear,140,2013-04-29 23:53:00
7:53 PM,72.0,60.1,66,29.88,10.0,Calm,Calm,-,N/A,,Clear,0,2013-04-30 00:53:00
8:53 PM,66.9,60.1,79,29.89,10.0,Calm,Calm,-,N/A,,Clear,0,2013-04-30 01:53:00
9:53 PM,64.9,60.1,84,29.90,10.0,Calm,Calm,-,N/A,,Clear,0,2013-04-30 02:53:00
10:53 PM,63.0,60.1,90,29.92,10.0,Calm,Calm,-,N/A,,Clear,0,2013-04-30 03:53:00
11:53 PM,63.0,60.1,90,29.91,10.0,Calm,Calm,-,N/A,,Clear,0,2013-04-30 04:53:00